Flag for Ukraine Weather past 2 weeks in Chernobyl, Ukraine

Now
88 °F

Pleasantly warm.


Feels Like: 84 °F
Forecast: 64 / 92 °F
Wind: 8 mph from South

Location: Hostomel

Current Time: Jul 30, 2014 at 6:50:03 PM

Latest Report: Jul 30, 2014 at 6:00 PM


Visibility: N/A

Pressure: 29.95 "Hg

Humidity: 19%

Dew point: 41 °F

Location of ChernobylLocation

Historic Weather in Chernobyl — Graph

°F

Chernobyl temperature yesterday

Maximum temperature yesterday: 86 °F (at 2:00 PM)
Minimum temperature yesterday: 61 °F (at 6:00 AM)
Average temperature yesterday: 77 °F

Past Weeks' High & Low Weather Summary

 TemperatureHumidityPressure
High90 °F (Jul 30, 2:00 PM)100% (Jul 22, 12:00 AM)30.15 "Hg (Jul 22, 12:00 AM)
Low57 °F (Jul 22, 3:00 AM)17% (Jul 30, 12:30 PM)29.77 "Hg (Jul 21, 4:00 PM)
Average74 °F56%29.99 "Hg
* Reported Jul 15 5:00 PM — Jul 30 5:00 PM, Chernobyl, Weather by CustomWeather, © 2014

Note: Actual official high and low records may vary slightly from our data, if they occured in-between our weather recording intervals... More about our weather records

Advertising

Chernobyl weather history for previous 24 hours

 ConditionsComfort  
Time TempWeatherWind HumidityBarometerVisibility
5:00 PM
Jul 30
88 °FPassing clouds.8 mph19%29.98 "HgN/A
4:00 PM88 °FSunny.10 mph19%29.98 "Hg10 mi
3:00 PM90 °FPassing clouds.8 mph20%29.98 "HgN/A
2:00 PM90 °FPassing clouds.13 mph17%29.98 "HgN/A
1:00 PM88 °FPassing clouds.13 mph18%29.98 "HgN/A
12:30 PM88 °FSunny.15 mph17%30.01 "Hg10 mi
12:00 PM88 °FPassing clouds.13 mph18%30.01 "HgN/A
11:30 AM88 °FPassing clouds.10 mph21%30.01 "HgN/A
11:00 AM86 °FPassing clouds.8 mph24%30.01 "HgN/A
10:00 AM82 °FPassing clouds.3 mph32%29.98 "HgN/A
9:00 AM77 °FPassing clouds.6 mph42%29.98 "HgN/A
8:00 AM72 °FSunny.1 mph50%29.98 "Hg10 mi
7:00 AM64 °FSunny.1 mph68%29.98 "Hg10 mi
6:00 AM59 °FCool.1 mph72%29.98 "HgN/A
5:00 AM59 °FCool.No wind72%29.98 "HgN/A
4:00 AM59 °FCool.1 mph72%29.98 "HgN/A
3:00 AM61 °FCool.No wind68%29.98 "HgN/A
2:00 AM63 °FMild.No wind64%29.98 "HgN/A
1:00 AM64 °FMild.No wind56%29.98 "HgN/A
12:00 AM64 °FMild.1 mph56%29.98 "HgN/A
11:00 PM
Jul 29
66 °FMild.3 mph56%29.98 "HgN/A
10:00 PM72 °FMild.1 mph41%29.98 "HgN/A
9:00 PM79 °FPleasantly warm.3 mph28%29.98 "HgN/A
8:00 PM81 °FPleasantly warm.3 mph26%29.98 "HgN/A
7:00 PM84 °FPassing clouds.6 mph20%29.98 "HgN/A
6:30 PM84 °FPassing clouds.6 mph19%29.98 "HgN/A
6:00 PM84 °FPassing clouds.6 mph18%29.98 "HgN/A
Weather by CustomWeather, © 2014

See weather overviewHow to use our weather pages